Weather Roundup
Issued by NWS

Home | Current Version | Previous Version | Graphics & Text | Print | Product List | Glossary Off
Versions: 1 2 3 4 5 6 7 8 9 10 11 12 13 14 15 16 17 18 19 20 21 22 23 24 25 26 27 28 29 30 31 32 33 34 35 36 37 38 39 40 41 42 43 44 45 46 47 48 49 50

000
NZUS93 KARX 270510
HRRWXR

CURRENT HOURLY OBSERVATIONS ACROSS
MUCH OF THE UPPER MISSISSIPPI VALLEY
NATIONAL WEATHER SERVICE LA CROSSE WI
1100 PM CST WED NOV 26 2014


...SOUTHEAST MINNESOTA...


CITY           SKY/WX    TMP DP  RH WIND       PRES   REMARKS
ROCHESTER      LGT SNOW  20  16  84 NW15      30.28R FOG     WCI   6
ROCHESTER/MAYO CLOUDY    21  15  77 NW10G18   30.29S WCI  10
WINONA         CLOUDY    25  19  80 NW7       30.30S WCI  17
AUSTIN         FLURRIES  18  14  86 NW13      30.30R WCI   4
ALBERT LEA     CLOUDY    14  10  85 NW12      30.33R WCI   0
DODGE CENTER   CLOUDY    19  16  86 NW10      30.29S WCI   8
PRESTON        CLOUDY    21  16  81 NW9       30.28R WCI  10
OWATONNA       CLOUDY    14  10  85 W13       30.33R WCI   0
FARIBAULT      FLURRIES  16  10  79 NW12      30.34R WCI   3
$$

...ELSEWHERE IN MINNESOTA...


CITY           SKY/WX    TMP DP  RH WIND       PRES   REMARKS
MINNEAPOLIS    MOCLDY    15   5  64 N14       30.37R WCI   0
INTNL FALLS    CLEAR     -9 -13  83 NW7       30.42S WCI -24
DULUTH         CLEAR      0  -7  72 N13       30.32S WCI -18
RED WING       LGT SNOW  19  12  73 NW8       30.33R WCI   9
REDWOOD FALLS  CLEAR      1  -5  75 NW16      30.45R WCI -19
MANKATO        CLOUDY    12   7  79 NW15      30.36S WCI  -4
WORTHINGTON    PTCLDY     3  -6  66 N13       30.40R WCI -14
FAIRMONT       CLOUDY     9   1  72 NW16      30.38R WCI  -9
$$

...SOUTHWEST WISCONSIN...


CITY           SKY/WX    TMP DP  RH WIND       PRES   REMARKS
LA CROSSE      CLOUDY    26  19  74 NW14      30.28R WCI  14
PRAIRIE DU CHI CLOUDY    25  20  81 NW5       30.27S WCI  20
BOSCOBEL       CLOUDY    21  18  88 CALM      30.27R FOG
LONE ROCK      LGT SNOW  22  16  78 W7        30.25R WCI  13
PLATTEVILLE    PTCLDY    22  20  93 CALM      30.24R
FORT MC COY    MOCLDY    24  20  85 NW9       30.27R WCI  14
CAMP DOUGLAS   CLOUDY    23  23 100 NW10      30.23R WCI  12
VIROQUA        CLOUDY    22  22 100 NW9       30.23R WCI  12
WIS DELLS      LGT SNOW  20  19  95 W6        30.21R WCI  13
$$

...ELSEWHERE IN WISCONSIN...


CITY           SKY/WX    TMP DP  RH WIND       PRES   REMARKS
MILWAUKEE      PTCLDY    23  17  78 NW9       30.18S WCI  13
MADISON        CLOUDY    16  13  88 CALM      30.21R
GREEN BAY      LGT SNOW  22  19  89 W6        30.19R FOG     WCI  14
EAU CLAIRE     FLURRIES  19  11  70 N10       30.29R WCI   7
BLACK RVR FLS  CLOUDY    24  19  83 NW5       30.26R WCI  18
MEDFORD        FLURRIES  18  14  85 NW9       30.20S WCI   6
WAUSAU         CLOUDY    21  15  78 NW8       30.18R WCI  11
WIS RAPIDS     CLOUDY    22  18  85 NW8       30.23R WCI  12
MARSHFIELD     CLOUDY    21  15  78 N16       30.21R WCI   7
RICE LAKE      CLOUDY    15   8  74 N7        30.33R WCI   5
$$

...NORTHEAST IOWA...


CITY           SKY/WX    TMP DP  RH WIND       PRES   REMARKS
DECORAH        CLOUDY    25  19  80 N12       30.26R WCI  14
MASON CITY     CLOUDY    15  11  83 NW16      30.35R WCI  -1
CHARLES CITY   CLOUDY    23  19  86 NW15      30.31R WCI  10
OELWEIN        CLOUDY    25  23  93 NW9       30.28R WCI  15
$$

...ELSEWHERE IN IOWA...


CITY           SKY/WX    TMP DP  RH WIND       PRES   REMARKS
DES MOINES     FLURRIES  23  18  81 NW16      30.37R WCI  10
IOWA CITY      LGT SNOW  27  24  89 NW8       30.30R FOG     WCI  19
FORT DODGE     CLOUDY    16  10  79 N7        30.38R WCI   6
$$

...NORTHERN ILLINOIS...


CITY           SKY/WX    TMP DP  RH WIND       PRES   REMARKS
CHICAGO-OHARE  CLOUDY    27  21  78 NW10      30.17R WCI  17
CHICAGO-MIDWAY FLURRIES  30  24  78 NW12      30.17R WCI  20
MOLINE         MOCLDY    26  19  74 N3        30.26R
ROCKFORD       PTCLDY    20  15  81 N8        30.24R HAZE    WCI  10
PEORIA         CLOUDY    27  19  72 N7        30.23R WCI  19
$$

NOTE: "FAIR" INDICATES FEW OR NO CLOUDS BELOW 12,000 FEET WITH NO
SIGNIFICANT WEATHER AND/OR OBSTRUCTIONS TO VISIBILITY. WIND
SPEEDS ARE IN MILES-PER-HOUR.



USA.gov is the U.S. government's official web portal to all federal, state and local government web resources and services.